User: anonymous   Login
Location: NJAA Observatory
(40.6819°N, 74.8979°W)
Time: 02:53:09
(UTC-04:00)
Language:

Cosmos 1328 Rocket - Orbit

View from above orbital plane
View from above orbital plane
View from above satellite
View from above satellite

Ground track
Ground track

The orbit data is extracted from the following two-line orbital elements,

1 12988U 81117B   18114.61530458 +.00000077 +00000-0 +63165-5 0  9993
2 12988 082.5225 141.2355 0016537 257.7945 223.6257 14.84696836944971
Epoch (UTC): 24 April 2018 14:46:02
Eccentricity: 0.0016537
inclination: 82.5225°
perigee height: 603 km
apogee height: 626 km
right ascension of ascending node: 141.2355°
argument of perigee: 257.7945°
revolutions per day: 14.84696836
mean anomaly at epoch: 223.6257°
orbit number at epoch: 94497

The dashed part of the orbit path shows where the satellite is in the earth's shadow,  

DLR